Tracking 21473 objects as of 18-Sep-2020
HD Live streaming from Space Station
objects crossing your sky now

COSMOS 1759

Track COSMOS 1759 now!
10-day predictions
COSMOS 1759 is classified as:


NORAD ID: 16798
Int'l Code: 1986-047A
Perigee: 971.1 km
Apogee: 1,006.7 km
Inclination: 82.9 °
Period: 104.7 minutes
Semi major axis: 7359 km
RCS: 2.2129 m2 (large)
Launch date: June 18, 1986
Source: Commonwealth of Independent States (former USSR) (CIS)
Launch site: PLESETSK MISSILE AND SPACE COMPLEX (PKMTR)
aabbcc
Your satellite tracking list
Your tracking list is empty




NASA's NSSDC Master Catalog

Two Line Element Set (TLE):
1 16798U 86047A   20261.69663431 +.00000045 +00000-0 +31866-4 0  9992
2 16798 082.9196 307.9702 0024168 348.7332 131.5278 13.74970974718304
Source of the keplerian elements: AFSPC